Starlink 4467

operational
NORAD ID: 53686 Int'l Des: 2022-105 Owner: SPXS Country: US Constellation: starlink
LEOCIRCULARRETROGRADESSO

Über Starlink 4467

Beschreibung wird geladen...

Live-Position

3D-Globus wird geladen...

Nächste Überflüge

Höhenverlauf

Altitude vs Time

uPlot chart will show altitude changes over time

Zweizeiliger Elementsatz

1 53686U 22105AQ 25353.18074759 .00001634 00000-0 13173-3 0 9999
2 53686 97.6014 231.4464 0001625 86.5296 273.6114 15.01262801181168
Epoch: 19. Dez. 2025 • Age: 27 hours

Aktueller Status

Höhe 567.0 km
Geschwindigkeit 7.58 km/s
Subsatellitenpunkt 34.97°N, 22.77°E
Startdatum 31. Aug. 2022
Alter 3.3 years
Typ internet

Technische Details

Klassifizierung Payload
Masse 300.00 kg
Trockenmasse 290.00 kg
Gesamtmasse 300.00 kg
Länge 0.20 m
Durchmesser 2.80 m
Spannweite 9.00 m
Form Box + pan
Hersteller SPXS
Bus-Typ Starlink
Phasenstatus In Orbit
Besitzer/Staat SPXS/US

Große Konstellationen

Loading constellations...